Lapse_Rate
5.8 5.7 5.5 5.2 5.5 5.7 6.1 6.0 6.1 5.7 5.5 5.6 5.6 5.7 5.7 5.8 5.6 5.4 5.3 5.4 5.3 5.5 5.4 5.4 5.4 5.5 5.5 5.6 5.7 6.1 6.3 6.4 6.7 6.7 6.9 7.0 7.1 7.0 7.1 7.1 7.1 7.1 7.2
5.7 5.5 5.5 5.4 5.3 5.3 5.8 6.0 5.9 6.1 5.7 5.6 5.5 5.7 5.9 5.8 5.8 5.6 5.5 5.4 5.4 5.5 5.5 5.5 5.6 5.6 5.7 5.8 5.8 5.8 5.9 6.3 6.7 6.9 6.9 7.0 7.1 7.1 7.1 7.0 7.0 7.0 7.3
5.8 5.6 5.4 5.4 5.4 5.3 5.3 5.8 5.9 6.0 6.0 5.6 5.6 5.7 5.9 5.9 5.7 5.7 5.7 5.6 5.6 5.6 5.5 5.5 5.5 5.7 5.7 5.8 5.9 5.9 6.0 6.3 6.7 6.9 7.0 7.1 7.1 7.0 6.9 6.8 6.8 7.0 7.1
5.9 5.8 5.6 5.5 5.4 5.4 5.1 5.0 5.4 5.9 5.9 5.7 5.7 5.7 5.7 5.8 5.9 6.0 5.9 5.9 5.8 5.8 5.7 5.7 5.7 5.7 5.7 5.8 5.9 6.0 6.0 6.2 6.4 6.7 6.8 6.8 6.8 6.7 6.7 6.8 7.0 7.0 7.1
6.1 6.0 6.1 5.8 5.7 5.3 5.3 4.9 4.8 5.1 5.7 5.8 5.7 5.7 5.7 5.7 5.8 6.0 6.1 6.1 6.0 6.1 6.1 6.1 5.9 5.9 5.9 5.9 6.1 6.1 6.2 6.2 6.3 6.5 6.6 6.6 6.5 6.4 6.4 6.6 7.0 7.1 7.1
6.6 6.4 6.1 6.1 6.0 5.7 5.4 5.3 5.1 5.0 5.2 5.5 5.8 5.8 5.7 5.7 5.9 5.8 5.8 6.0 6.0 6.0 6.3 6.4 6.4 6.2 6.1 6.1 6.2 6.1 6.2 6.4 6.4 6.4 6.5 6.7 6.5 6.4 6.3 6.6 7.0 7.1 7.5
6.7 6.8 6.7 6.7 6.2 6.2 5.9 5.7 5.7 5.7 5.6 5.5 5.7 5.7 5.8 5.9 5.9 5.8 5.6 5.7 6.0 6.0 6.1 6.2 6.4 6.5 6.3 6.3 6.3 6.3 6.4 6.5 6.5 6.4 6.6 6.6 6.6 6.2 6.4 6.6 7.0 7.2 7.4
6.8 6.7 6.6 6.5 6.6 6.5 6.2 6.0 5.9 5.8 5.7 5.8 5.8 5.9 5.9 6.0 6.0 5.9 5.8 5.6 5.7 5.9 6.1 6.1 6.2 6.4 6.4 6.2 6.2 6.4 6.6 6.6 6.5 6.4 6.5 6.5 6.5 6.5 6.5 6.8 7.2 7.1 7.3
6.6 6.7 6.6 6.8 6.5 6.5 6.7 6.5 6.3 6.0 5.8 5.9 5.9 5.9 6.0 6.3 6.3 6.3 6.1 5.9 6.0 6.2 6.1 6.1 6.2 6.3 6.4 6.2 6.1 6.4 6.4 6.7 6.3 6.2 6.1 6.4 6.4 6.6 6.7 6.8 6.9 6.9 7.1
6.5 6.5 6.9 7.0 7.1 6.6 6.6 6.7 6.6 6.3 6.1 6.0 5.7 5.9 6.0 6.2 6.3 6.3 6.2 6.1 6.3 6.5 6.5 6.5 6.4 6.5 6.6 6.4 6.2 6.2 6.5 6.7 6.0 5.8 6.0 6.3 6.4 6.6 6.4 6.3 6.5 6.6 6.9
6.0 5.7 6.6 6.7 6.9 6.7 6.5 6.7 6.5 6.6 6.4 6.4 6.4 6.2 5.9 6.0 6.3 6.4 6.3 6.3 6.5 6.7 6.7 6.8 6.8 6.8 6.6 6.4 6.3 6.1 6.6 6.4 6.2 6.1 6.2 6.4 6.3 6.2 6.1 5.9 5.8 6.2 6.8
5.3 5.7 5.6 6.0 6.7 6.7 6.5 6.5 6.5 6.4 6.4 6.5 6.4 6.4 6.7 6.8 6.7 6.7 6.7 6.6 6.5 6.4 6.6 6.9 7.1 7.1 6.9 6.6 6.3 6.5 6.4 6.2 6.4 6.6 6.5 6.6 6.3 6.1 5.9 5.6 5.8 6.0 6.5
5.3 5.0 5.4 5.9 6.0 6.4 6.0 6.2 6.6 6.4 6.4 6.4 6.3 6.4 6.7 6.9 6.9 6.6 6.6 6.7 6.7 6.6 6.7 6.8 7.1 7.1 7.1 6.9 6.4 6.3 6.3 6.4 6.6 6.6 6.7 6.7 6.4 6.1 5.9 5.6 5.6 5.7 6.1
5.1 5.0 5.0 5.2 5.6 5.7 5.8 5.9 6.2 6.4 6.5 6.5 6.4 6.5 6.6 6.6 6.6 6.6 6.5 6.6 6.7 6.5 6.6 6.6 6.8 7.0 7.0 6.9 6.6 6.5 6.5 6.7 6.7 6.5 6.7 6.7 6.5 6.3 6.1 5.9 5.8 5.9 6.1
5.4 5.2 4.9 5.1 5.3 5.6 5.5 5.2 5.7 6.0 6.1 6.2 6.6 6.7 6.6 6.8 7.0 6.4 6.1 6.2 6.1 6.2 6.1 6.2 6.5 7.0 7.3 7.3 7.1 6.9 6.7 6.7 6.8 6.7 6.6 6.6 6.6 6.5 6.4 6.1 6.0 6.0 6.2
5.4 5.4 5.2 5.1 5.4 5.3 5.6 5.6 5.1 5.1 5.9 6.2 5.8 6.7 7.1 6.8 6.9 6.5 6.4 6.7 6.5 6.4 6.3 6.5 6.6 6.8 7.1 7.2 7.2 7.1 6.9 6.7 6.7 6.6 6.4 6.4 6.5 6.6 6.6 6.4 6.3 6.3 6.4
5.6 5.6 5.6 5.1 5.2 5.6 5.4 5.6 5.5 4.7 5.5 5.6 6.2 6.8 6.8 6.9 6.7 6.6 6.5 6.7 6.6 6.5 6.5 6.7 6.9 6.8 7.0 7.0 7.0 7.0 7.0 6.8 6.6 6.4 6.4 6.4 6.4 6.5 6.6 6.6 6.5 6.5 6.5
5.6 5.9 5.6 5.6 5.4 5.5 5.9 5.9 5.7 5.7 5.9 6.2 6.5 7.2 6.8 7.1 6.9 6.6 6.6 6.7 6.7 6.9 6.9 6.8 7.1 7.1 7.1 7.1 7.0 6.9 6.8 6.7 6.5 6.4 6.4 6.4 6.4 6.5 6.6 6.7 6.7 6.7 6.7
5.3 5.7 5.8 5.5 5.7 5.9 6.0 5.9 5.8 6.1 6.4 6.7 6.4 7.0 6.8 6.5 6.4 6.6 6.4 7.1 7.0 6.9 6.8 6.9 6.8 7.2 7.2 7.2 7.2 7.2 7.1 7.1 6.9 6.8 6.8 6.8 6.7 6.7 6.8 6.7 6.7 6.7 6.8
6.2 5.5 5.8 5.7 5.6 5.8 5.8 6.2 5.9 5.7 5.8 6.1 6.4 6.5 6.4 6.4 6.6 6.6 6.6 6.9 6.9 7.1 6.7 6.8 7.0 7.0 7.3 7.6 7.5 7.3 7.2 7.3 7.4 7.3 7.3 7.1 6.9 6.8 6.9 6.9 7.1 6.9 6.7
6.2 6.1 5.5 5.7 5.7 5.8 5.7 5.7 5.9 6.1 5.8 5.9 6.3 6.6 6.7 6.4 6.3 6.7 6.9 6.5 6.7 6.9 6.9 6.8 7.0 7.1 7.0 7.4 7.6 7.6 7.5 7.3 7.1 7.3 7.4 7.4 7.2 7.1 7.0 6.9 6.9 6.8 6.6
6.8 6.1 5.9 5.5 5.5 5.6 5.7 5.6 5.3 5.7 5.8 5.8 5.9 6.5 6.8 6.8 6.3 6.6 6.5 6.6 6.6 6.8 6.5 6.6 6.6 6.6 6.8 7.0 7.1 7.2 7.2 7.2 7.0 7.0 7.1 7.2 7.0 6.9 6.8 6.7 6.8 6.6 6.5
7.2 6.8 6.1 5.9 5.7 5.6 5.4 5.8 5.5 5.3 5.6 6.0 6.4 6.1 7.0 6.9 6.7 7.0 6.9 6.8 7.0 7.2 6.3 5.9 6.0 6.3 6.5 6.9 7.1 7.5 7.3 7.3 6.8 6.6 6.7 6.6 6.6 6.6 6.6 6.7 6.5 6.4 6.2
7.1 7.1 6.8 6.0 5.9 5.6 5.5 5.4 5.3 5.3 5.4 6.4 6.3 6.9 6.8 7.1 7.3 7.4 7.1 6.6 6.5 6.6 6.4 6.4 6.5 6.7 6.7 6.8 6.7 6.6 6.8 6.7 7.0 6.6 6.7 6.3 6.4 6.4 6.5 6.5 6.2 6.1 6.1
7.0 7.2 7.0 6.3 5.8 5.6 5.4 4.9 5.1 5.0 5.6 5.7 6.1 6.3 6.9 7.0 6.9 7.2 7.3 7.2 6.9 7.2 7.0 6.8 6.5 6.4 6.2 6.6 6.6 6.5 6.4 6.1 6.4 6.2 6.7 6.6 6.6 6.4 6.2 6.2 6.1 6.1 6.1
6.0 6.2 6.7 6.6 5.8 5.3 4.9 5.0 5.4 6.0 5.7 5.8 5.7 6.1 6.7 6.9 6.5 6.8 7.0 7.3 7.2 7.2 7.3 7.3 6.9 6.2 5.6 6.1 6.4 6.5 5.9 5.9 6.0 6.1 5.9 6.0 6.4 5.9 6.0 6.1 5.9 6.0 5.7
Wind_Speed
17 16 15 14 15 14 13 13 12 10 8 9 9 9 9 9 9 9 9 7 8 7 6 6 7 6 5 4 4 4 4 4 6 7 4 5 5 7 12 13 14 14 13
16 14 15 14 14 14 14 14 13 12 11 10 9 9 10 10 10 11 10 9 10 9 9 8 8 6 7 6 5 6 5 5 6 8 7 7 6 8 10 10 12 14 12
13 12 11 12 12 15 15 14 13 13 13 12 11 10 11 11 11 11 11 11 11 10 9 9 9 8 8 6 7 6 6 5 6 7 8 6 7 7 9 9 8 10 14
13 14 15 13 13 13 14 14 14 14 13 13 13 13 12 11 11 11 11 11 11 11 11 10 10 10 9 8 7 8 7 7 7 7 8 8 7 7 7 8 9 8 10
13 15 16 16 15 12 12 14 14 14 14 14 14 14 14 12 10 12 12 11 11 12 11 11 11 11 9 9 7 8 7 8 7 8 9 9 8 7 8 8 9 9 9
12 16 14 14 14 14 15 15 14 14 14 14 15 15 15 13 12 13 13 11 12 12 12 12 12 10 10 12 12 12 11 10 10 9 9 10 10 9 7 8 9 9 8
8 12 12 13 14 14 15 14 14 15 14 15 15 16 16 16 13 15 17 13 12 13 13 12 12 10 12 12 12 12 12 13 14 11 12 12 12 10 9 10 9 9 10
6 6 10 14 15 14 14 15 14 13 14 13 15 15 15 14 14 17 17 17 14 15 15 14 14 14 13 12 12 12 12 12 11 10 13 14 13 11 9 9 10 10 9
12 10 8 9 8 13 14 14 13 13 13 14 14 15 16 16 15 17 15 16 16 16 15 16 15 15 13 15 14 14 13 13 14 20 24 23 23 22 17 8 9 9 10
12 13 13 9 6 7 10 14 13 13 14 12 15 15 16 17 14 17 17 14 16 14 15 16 15 18 14 16 15 14 14 14 12 12 9 12 19 19 19 13 10 10 10
13 13 12 11 9 5 7 5 7 12 13 13 14 13 15 16 17 17 19 16 14 14 14 14 14 20 20 16 19 14 15 12 12 10 11 11 10 10 9 12 14 10 10
12 12 12 12 9 6 7 7 4 7 10 12 12 13 13 15 17 16 18 23 17 15 15 14 13 14 19 19 15 18 14 9 11 11 11 11 11 10 10 9 14 15 15
11 12 12 13 11 8 8 8 5 7 7 9 8 10 12 12 13 19 18 21 23 15 15 14 12 12 16 15 15 14 14 9 11 11 12 12 11 10 9 9 12 14 16
10 11 12 13 13 10 8 5 6 6 8 10 11 9 9 9 13 13 12 12 18 15 19 15 13 12 12 11 11 12 11 12 11 12 12 11 10 9 10 9 9 8 9
12 12 12 10 12 11 10 8 7 8 8 9 10 8 10 12 15 13 13 13 13 14 14 13 13 12 12 12 13 13 12 11 12 13 12 12 11 11 11 9 9 9 10
10 9 10 10 11 9 10 9 12 14 18 17 16 16 11 18 13 13 16 15 13 10 10 13 13 12 13 12 12 11 12 13 13 12 12 13 13 12 12 11 10 11 11
10 10 9 10 11 10 11 9 10 9 17 20 13 17 17 22 15 13 15 14 12 11 11 11 12 12 11 10 11 11 13 12 12 12 12 12 12 12 11 12 12 12 13
10 11 10 10 10 9 9 11 8 9 11 11 9 10 14 18 20 14 11 9 4 5 12 11 10 12 11 11 10 10 10 9 9 12 12 12 11 12 12 12 12 12 12
9 9 9 9 10 10 9 10 8 9 9 9 9 13 11 15 13 12 14 11 12 12 11 13 11 10 9 11 11 12 13 10 9 9 9 10 11 9 10 10 9 11 11
11 14 12 10 9 9 7 8 8 9 8 8 8 8 10 4 2 4 8 11 12 11 9 10 11 13 12 10 9 9 9 9 9 9 9 9 9 9 9 10 10 9 9
9 9 12 10 9 8 8 9 7 7 7 8 8 9 11 7 9 6 7 8 9 8 7 7 8 9 10 9 9 8 9 9 9 9 9 8 8 8 9 8 8 9 10
8 8 8 8 8 8 8 6 7 8 7 9 9 9 12 6 5 4 4 4 4 4 5 4 3 4 4 4 4 4 2 3 3 4 5 6 7 7 6 7 6 7 9
8 9 8 7 7 8 7 5 6 6 7 7 8 7 5 4 3 4 4 3 5 7 6 5 2 4 4 5 5 4 3 2 2 2 2 3 4 3 5 6 9 9 10
8 8 7 6 5 5 5 4 4 4 5 4 6 4 3 4 5 7 6 6 6 6 4 5 5 8 4 5 6 6 4 5 4 3 2 0 1 2 2 2 5 6 8
6 6 5 4 3 3 3 1 2 4 4 3 3 3 4 6 5 6 7 6 7 8 9 7 6 9 9 12 10 13 14 15 8 5 4 8 6 8 8 7 7 7 9
8 7 5 3 2 1 0 3 4 4 4 3 3 3 6 6 6 6 7 7 7 8 9 6 10 15 13 14 14 16 17 20 15 17 12 6 6 6 6 8 11 7 8
Wind_Direction
210 208 213 216 220 215 216 223 219 214 209 211 205 200 202 202 204 209 215 207 214 219 220 226 233 234 247 243 242 244 243 243 276 302 290 310 304 313 324 328 327 324 332
210 208 208 210 210 219 221 216 219 224 215 217 209 206 203 206 201 209 216 217 215 216 216 218 231 226 229 232 235 246 256 249 270 284 306 298 297 315 311 315 325 327 330
216 211 214 212 207 218 222 221 220 222 224 224 219 215 209 207 206 213 216 218 222 224 222 219 226 221 228 234 232 241 244 247 238 267 289 288 299 305 314 313 321 321 315
223 223 221 215 214 216 222 221 217 220 224 226 228 228 222 214 208 211 214 222 228 227 227 226 226 224 231 235 235 245 247 253 250 258 275 286 292 304 297 310 322 326 325
223 226 225 225 223 216 215 220 223 222 224 226 228 234 233 226 218 211 213 216 223 228 228 231 230 231 223 235 249 247 254 249 261 269 277 282 284 303 312 318 307 319 317
250 242 240 231 228 224 220 217 217 220 224 223 228 230 231 235 220 202 210 215 219 223 227 229 238 221 232 226 227 239 252 255 260 272 278 283 285 284 297 303 308 317 318
276 259 252 246 234 228 229 228 227 223 222 224 228 229 231 233 215 204 208 225 224 223 224 227 230 232 223 239 222 231 243 235 236 256 266 269 279 280 288 290 294 298 297
329 293 280 247 245 239 232 228 227 230 227 227 231 230 233 235 215 207 203 225 233 234 230 228 231 237 229 228 237 247 250 253 237 233 242 256 260 270 271 277 291 288 280
352 343 339 346 300 250 241 235 231 231 228 231 235 235 232 237 215 214 205 226 233 234 234 233 232 236 231 206 234 248 255 258 255 238 248 253 255 262 262 281 269 278 290
341 328 319 318 312 327 291 246 246 238 238 233 237 236 234 239 222 215 208 234 232 233 234 235 216 234 213 195 219 240 248 254 260 266 244 246 252 258 250 231 253 263 276
333 326 317 318 315 292 302 310 272 242 246 236 238 236 236 233 235 210 205 222 236 230 235 234 235 206 221 205 206 235 242 249 254 251 258 257 254 251 252 225 234 248 263
330 326 320 315 301 297 281 279 278 285 249 237 235 241 242 238 227 219 207 212 225 235 239 238 237 196 206 212 205 231 242 228 252 255 255 256 256 255 253 250 248 244 253
324 323 318 316 316 309 299 288 266 248 257 264 243 243 249 248 241 218 207 208 222 230 241 241 236 198 204 213 214 219 223 234 242 241 245 250 252 260 266 258 250 250 250
314 314 315 313 310 303 289 281 283 264 262 266 259 243 245 246 245 239 223 218 223 223 240 243 242 239 231 238 213 219 230 230 232 237 242 247 251 249 245 246 251 247 245
304 306 305 304 306 299 289 288 269 263 254 262 276 282 248 245 245 237 235 229 215 214 219 233 237 231 235 233 235 234 229 227 230 236 243 244 243 241 245 245 243 243 242
289 291 295 302 298 297 294 285 264 254 266 260 260 251 269 268 262 215 215 220 220 201 209 229 230 227 229 229 230 229 230 239 237 237 240 240 242 241 242 242 235 235 241
278 281 281 285 288 287 284 290 293 249 228 243 249 251 235 250 269 240 222 221 222 181 227 231 232 228 225 226 233 231 235 239 225 236 237 241 242 247 239 243 238 236 240
282 276 270 270 271 278 284 283 292 296 303 314 309 264 270 250 242 231 228 154 189 231 230 236 230 226 228 223 220 225 233 230 236 235 237 238 239 242 242 241 240 240 239
283 282 279 276 270 268 275 283 286 283 288 294 311 306 288 251 248 208 192 214 218 224 220 234 234 235 229 234 236 232 229 222 220 231 232 234 235 228 230 238 236 228 232
280 273 273 279 280 276 272 274 278 278 291 291 290 294 311 319 265 217 217 223 225 232 229 221 230 241 235 227 226 232 237 227 227 232 235 231 229 225 225 232 232 228 222
279 276 279 281 277 274 280 280 282 283 294 288 291 298 318 289 274 256 224 224 230 226 245 242 228 223 227 226 226 225 229 230 227 230 235 232 228 223 221 223 224 225 234
268 279 278 274 274 275 277 287 288 288 290 295 299 294 303 315 311 20 17 10 35 47 60 10 347 357 359 345 360 330 281 238 240 273 251 232 231 220 208 214 212 230 235
285 280 273 271 274 279 276 278 274 283 293 289 295 288 331 341 344 53 54 31 41 44 42 50 58 47 28 26 25 17 347 8 26 34 354 320 300 230 205 205 208 207 229
294 288 279 273 271 280 279 292 301 293 284 314 308 317 13 24 14 41 57 54 69 63 54 65 53 68 56 50 45 22 29 337 342 332 304 272 304 14 321 271 250 252 254
325 311 300 290 277 272 261 283 349 342 2 10 332 346 54 68 59 55 59 58 58 65 54 47 55 57 55 67 56 48 14 39 65 70 55 76 57 56 59 48 33 22 18
357 348 337 337 352 339 71 99 81 69 60 48 46 42 66 70 65 64 67 69 66 62 65 51 58 55 44 51 56 54 51 50 57 60 75 71 78 86 91 88 80 73 51